User: anonymous   Login
Location: Ar Ranvel
(48.3000°N, 4.8833°W)
Time: 15:49:39
(UTC+00:00)
Language:

Aureole 1 Rocket - Orbit

View from above orbital plane
View from above orbital plane
View from above satellite
View from above satellite

Ground track
Ground track

The orbit data is extracted from the following two-line orbital elements,

1  5730U 71119B   21265.38369105  .00001091  00000-0  71612-4 0  9997
2  5730  73.8898 255.5634 0684288 190.1045 168.5737 14.05664171424312
Epoch (UTC): 22 September 2021 09:12:30
Eccentricity: 0.0684288
inclination: 73.8898°
perigee height: 378 km
apogee height: 1370 km
right ascension of ascending node: 255.5634°
argument of perigee: 190.1045°
revolutions per day: 14.05664171
mean anomaly at epoch: 168.5737°
orbit number at epoch: 42431

The dashed part of the orbit path shows where the satellite is in the earth's shadow,  

DLR